EZY33DC EGAA-EGKK

Flight info

Callsign EZY33DC
Flight time 1h 8m
Altitude 33000
Route DCT LISBO DCT RINGA DCT BABGU DCT ETIGA DCT INKOB Q39 NOMSU UQ4 WAL L151 DISIT DISIT1G
Aircraft A320/M-SDE3FGHIRWY/LB1

Departure

Time 2026-05-04 09:49
Airport Belfast International Airport (EGAA)

Arrival

Time 2026-05-04 10:57
Airport London Gatwick Airport (EGKK)
Time Latitude Longitude Altitude Speed Heading
2026-05-04 09:17 54.65996 -6.21772 272 ft 0 kts 245°
2026-05-04 09:35 54.65996 -6.21771 272 ft 0 kts 245°
2026-05-04 09:42 54.66027 -6.21656 278 ft 0 kts 245°
2026-05-04 09:46 54.66112 -6.20915 276 ft 24 kts 65°
2026-05-04 09:46 54.66183 -6.20653 272 ft 25 kts 65°
2026-05-04 09:46 54.66259 -6.20376 274 ft 26 kts 65°
2026-05-04 09:47 54.66334 -6.20085 272 ft 27 kts 66°
2026-05-04 09:47 54.66394 -6.19851 272 ft 19 kts 83°
2026-05-04 09:49 54.65211 -6.24040 938 ft 185 kts 247°
2026-05-04 09:49 54.64646 -6.26063 1914 ft 191 kts 246°
2026-05-04 09:49 54.63653 -6.27729 2296 ft 218 kts 204°
2026-05-04 09:51 54.56078 -6.16122 5000 ft 277 kts 129°
2026-05-04 09:51 54.54846 -6.13565 5009 ft 277 kts 131°
2026-05-04 09:51 54.53569 -6.11049 5233 ft 283 kts 132°
2026-05-04 09:51 54.52415 -6.08336 6256 ft 282 kts 120°
2026-05-04 09:52 54.51590 -6.05265 7142 ft 284 kts 112°
2026-05-04 09:52 54.50829 -6.02098 7979 ft 288 kts 112°
2026-05-04 09:52 54.50058 -5.98895 8795 ft 292 kts 111°
2026-05-04 09:52 54.49277 -5.95653 9678 ft 295 kts 111°
2026-05-04 09:53 54.48483 -5.92375 10421 ft 301 kts 111°
2026-05-04 09:53 54.47646 -5.88930 10698 ft 324 kts 112°
2026-05-04 09:53 54.46760 -5.85292 11082 ft 340 kts 112°
2026-05-04 09:53 54.45837 -5.81501 11727 ft 347 kts 111°
2026-05-04 09:54 54.44899 -5.77656 12472 ft 350 kts 112°
2026-05-04 09:54 54.43944 -5.73762 13192 ft 354 kts 112°
2026-05-04 09:54 54.42981 -5.69851 13929 ft 358 kts 112°
2026-05-04 09:54 54.42006 -5.65894 14534 ft 361 kts 112°
2026-05-04 09:55 54.41017 -5.61890 15130 ft 366 kts 112°
2026-05-04 09:55 54.39991 -5.57870 15803 ft 368 kts 116°
2026-05-04 09:55 54.38643 -5.54118 16460 ft 371 kts 124°
2026-05-04 09:55 54.37168 -5.50483 17105 ft 374 kts 124°
2026-05-04 09:56 54.35679 -5.46817 17751 ft 376 kts 123°
2026-05-04 09:56 54.34178 -5.43123 18387 ft 378 kts 123°
2026-05-04 09:56 54.32668 -5.39407 18913 ft 381 kts 123°
2026-05-04 09:56 54.31144 -5.35672 19440 ft 384 kts 123°
2026-05-04 09:57 54.29609 -5.31915 19975 ft 387 kts 122°
2026-05-04 09:57 54.28062 -5.28129 20485 ft 389 kts 123°
2026-05-04 09:57 54.26470 -5.24427 21010 ft 392 kts 126°
2026-05-04 09:57 54.24765 -5.20763 21509 ft 395 kts 127°
2026-05-04 09:58 54.22995 -5.17130 21998 ft 398 kts 128°
2026-05-04 09:58 54.21198 -5.13509 22490 ft 401 kts 128°
2026-05-04 09:58 54.19391 -5.09875 22967 ft 403 kts 128°
2026-05-04 10:00 54.06634 -4.83607 25852 ft 417 kts 126°
2026-05-04 10:00 54.04773 -4.79797 26224 ft 419 kts 126°
2026-05-04 10:02 53.92255 -4.51799 28727 ft 432 kts 123°
2026-05-04 10:04 53.79873 -4.22791 30973 ft 438 kts 119°
2026-05-04 10:04 53.78166 -4.18530 31235 ft 439 kts 119°
2026-05-04 10:04 53.76438 -4.14271 31582 ft 439 kts 120°
2026-05-04 10:04 53.74703 -4.10044 31962 ft 437 kts 120°
2026-05-04 10:05 53.72959 -4.05828 32344 ft 435 kts 120°
2026-05-04 10:05 53.71224 -4.01656 32723 ft 433 kts 120°
2026-05-04 10:05 53.69489 -3.97492 33026 ft 432 kts 120°
2026-05-04 10:06 53.66091 -3.89327 33094 ft 418 kts 120°
2026-05-04 10:06 53.62770 -3.81357 33090 ft 414 kts 120°
2026-05-04 10:08 53.51146 -3.53653 33085 ft 414 kts 121°
2026-05-04 10:08 53.47832 -3.45811 33074 ft 414 kts 119°
2026-05-04 10:09 53.45271 -3.37299 33062 ft 407 kts 108°
2026-05-04 10:09 53.43062 -3.28544 33072 ft 407 kts 109°
2026-05-04 10:10 53.40817 -3.19805 33066 ft 409 kts 111°
2026-05-04 10:10 53.37479 -3.11979 33064 ft 420 kts 131°
2026-05-04 10:11 53.32743 -3.06070 33070 ft 427 kts 141°
2026-05-04 10:11 53.27817 -3.00472 33066 ft 427 kts 141°
2026-05-04 10:12 53.22904 -2.94890 33062 ft 427 kts 141°
2026-05-04 10:12 53.18006 -2.89345 33080 ft 427 kts 142°
2026-05-04 10:13 53.13086 -2.83784 33075 ft 427 kts 142°
2026-05-04 10:13 53.08155 -2.78220 33061 ft 427 kts 142°
2026-05-04 10:14 53.03254 -2.72706 33056 ft 428 kts 142°
2026-05-04 10:16 52.83494 -2.50692 33054 ft 427 kts 143°
2026-05-04 10:16 52.78560 -2.45219 33052 ft 427 kts 143°
2026-05-04 10:17 52.73630 -2.39761 33057 ft 427 kts 144°
2026-05-04 10:19 52.55731 -2.20128 33061 ft 444 kts 145°
2026-05-04 10:19 52.53157 -2.17328 33063 ft 444 kts 145°
2026-05-04 10:19 52.48006 -2.11732 32694 ft 442 kts 145°
2026-05-04 10:20 52.45453 -2.08964 32054 ft 439 kts 145°
2026-05-04 10:20 52.43735 -2.07102 31660 ft 436 kts 145°
2026-05-04 10:20 52.41211 -2.04365 31091 ft 432 kts 145°
2026-05-04 10:20 52.38718 -2.01660 30539 ft 428 kts 145°
2026-05-04 10:21 52.36253 -1.98987 29979 ft 424 kts 146°
2026-05-04 10:21 52.33830 -1.96366 29356 ft 420 kts 147°
2026-05-04 10:21 52.31401 -1.93741 28730 ft 417 kts 147°
2026-05-04 10:21 52.28959 -1.91105 28115 ft 413 kts 147°
2026-05-04 10:22 52.24190 -1.85974 26968 ft 406 kts 149°
2026-05-04 10:22 52.21838 -1.83453 26410 ft 403 kts 149°
2026-05-04 10:22 52.19498 -1.80952 25839 ft 400 kts 149°
2026-05-04 10:23 52.17181 -1.78475 25296 ft 397 kts 149°
2026-05-04 10:23 52.14881 -1.76019 24752 ft 394 kts 150°
2026-05-04 10:25 51.99218 -1.59373 21022 ft 373 kts 149°
2026-05-04 10:25 51.97050 -1.57078 20538 ft 371 kts 149°
2026-05-04 10:25 51.94900 -1.54801 20074 ft 368 kts 149°
2026-05-04 10:25 51.92789 -1.52568 19628 ft 365 kts 149°
2026-05-04 10:26 51.90667 -1.50328 19189 ft 362 kts 148°
2026-05-04 10:26 51.88564 -1.48106 18753 ft 360 kts 148°
2026-05-04 10:26 51.86474 -1.45904 18321 ft 357 kts 148°
2026-05-04 10:26 51.84398 -1.43724 17845 ft 354 kts 148°
2026-05-04 10:27 51.82337 -1.41563 17379 ft 352 kts 148°
2026-05-04 10:27 51.80286 -1.39419 16914 ft 350 kts 148°
2026-05-04 10:27 51.78246 -1.37288 16454 ft 347 kts 148°
2026-05-04 10:27 51.76221 -1.35172 16026 ft 345 kts 148°
2026-05-04 10:28 51.74216 -1.33078 15597 ft 342 kts 148°
2026-05-04 10:28 51.72222 -1.30998 15170 ft 340 kts 148°
2026-05-04 10:28 51.70258 -1.28955 15024 ft 329 kts 148°
2026-05-04 10:28 51.68369 -1.26986 15028 ft 320 kts 148°
2026-05-04 10:29 51.66508 -1.25047 15026 ft 318 kts 148°
2026-05-04 10:29 51.64652 -1.23113 15030 ft 317 kts 148°
2026-05-04 10:29 51.62797 -1.21187 15030 ft 317 kts 148°
2026-05-04 10:29 51.60940 -1.19264 15030 ft 317 kts 148°
2026-05-04 10:30 51.59084 -1.17343 15030 ft 317 kts 148°
2026-05-04 10:30 51.57225 -1.15418 15030 ft 317 kts 148°
2026-05-04 10:30 51.55369 -1.13499 15030 ft 317 kts 148°
2026-05-04 10:30 51.53510 -1.11577 14993 ft 317 kts 148°
2026-05-04 10:31 51.51635 -1.09641 14286 ft 327 kts 148°
2026-05-04 10:31 51.49697 -1.07643 13698 ft 332 kts 148°
2026-05-04 10:32 51.38540 -0.96161 12316 ft 306 kts 149°
2026-05-04 10:33 51.36748 -0.94330 12190 ft 306 kts 149°
2026-05-04 10:33 51.34952 -0.92496 12079 ft 306 kts 149°
2026-05-04 10:33 51.33159 -0.90664 11943 ft 306 kts 149°
2026-05-04 10:33 51.31367 -0.88836 11832 ft 304 kts 149°
2026-05-04 10:34 51.29597 -0.87033 11499 ft 301 kts 149°
2026-05-04 10:34 51.27835 -0.85240 11137 ft 299 kts 149°
2026-05-04 10:34 51.26083 -0.83456 10775 ft 298 kts 149°
2026-05-04 10:34 51.24337 -0.81681 10411 ft 296 kts 149°
2026-05-04 10:35 51.22607 -0.79919 10051 ft 295 kts 149°
2026-05-04 10:35 51.20897 -0.78181 9877 ft 286 kts 149°
2026-05-04 10:35 51.19239 -0.76471 9567 ft 283 kts 145°
2026-05-04 10:35 51.17846 -0.74271 9188 ft 283 kts 132°
2026-05-04 10:36 51.16587 -0.71873 8803 ft 281 kts 131°
2026-05-04 10:36 51.15343 -0.69478 8426 ft 280 kts 131°
2026-05-04 10:36 51.14104 -0.67102 8041 ft 278 kts 131°
2026-05-04 10:36 51.12865 -0.64744 7665 ft 276 kts 131°
2026-05-04 10:37 51.11633 -0.62408 7298 ft 275 kts 131°
2026-05-04 10:37 51.10409 -0.60088 6934 ft 273 kts 131°
2026-05-04 10:37 51.09174 -0.57758 6565 ft 271 kts 131°
2026-05-04 10:37 51.07951 -0.55489 6175 ft 269 kts 134°
2026-05-04 10:39 51.00031 -0.45392 4811 ft 256 kts 82°
2026-05-04 10:39 51.00667 -0.42856 4680 ft 244 kts 52°
2026-05-04 10:39 51.01978 -0.41287 4547 ft 234 kts 19°
2026-05-04 10:40 51.03556 -0.41070 4417 ft 225 kts 352°
2026-05-04 10:40 51.05073 -0.41552 4284 ft 218 kts 347°
2026-05-04 10:40 51.06531 -0.42115 4133 ft 213 kts 346°
2026-05-04 10:40 51.07956 -0.42685 3963 ft 208 kts 346°
2026-05-04 10:41 51.09361 -0.42826 3839 ft 201 kts 12°
2026-05-04 10:41 51.10615 -0.42024 3691 ft 190 kts 34°
2026-05-04 10:41 51.11555 -0.40592 3419 ft 187 kts 56°
2026-05-04 10:41 51.12075 -0.38743 3062 ft 187 kts 76°
2026-05-04 10:42 51.12369 -0.36667 2549 ft 196 kts 77°
2026-05-04 10:42 51.12665 -0.34512 2051 ft 201 kts 77°
2026-05-04 10:42 51.12968 -0.32336 1638 ft 200 kts 77°
2026-05-04 10:42 51.13268 -0.30180 1235 ft 198 kts 78°
2026-05-04 10:43 51.13559 -0.28087 1028 ft 183 kts 77°
2026-05-04 10:44 51.14757 -0.16680 2631 ft 149 kts 125°
2026-05-04 10:45 51.13894 -0.15778 3148 ft 159 kts 166°
2026-05-04 10:45 51.12706 -0.15607 3463 ft 183 kts 179°
2026-05-04 10:45 51.11355 -0.15637 3824 ft 206 kts 181°
2026-05-04 10:45 51.09847 -0.15713 3990 ft 223 kts 181°
2026-05-04 10:46 51.08291 -0.15802 4004 ft 224 kts 181°
2026-05-04 10:46 51.06725 -0.15884 4007 ft 225 kts 181°
2026-05-04 10:46 51.05162 -0.15968 4011 ft 224 kts 181°
2026-05-04 10:46 51.03585 -0.16082 4006 ft 230 kts 187°
2026-05-04 10:47 51.02116 -0.17052 4006 ft 232 kts 220°
2026-05-04 10:47 51.01001 -0.18921 4010 ft 234 kts 230°
2026-05-04 10:47 50.99981 -0.20935 4005 ft 234 kts 231°
2026-05-04 10:47 50.98974 -0.22966 4004 ft 234 kts 231°
2026-05-04 10:49 50.98368 -0.39442 3939 ft 197 kts 281°
2026-05-04 10:49 50.98545 -0.40845 3796 ft 193 kts 281°
2026-05-04 10:50 50.98840 -0.42909 3488 ft 191 kts 291°
2026-05-04 10:51 51.06440 -0.50029 3006 ft 190 kts 348°
2026-05-04 10:52 51.07726 -0.49939 2991 ft 186 kts 25°
2026-05-04 10:52 51.08774 -0.48749 3005 ft 186 kts 43°
2026-05-04 10:52 51.09678 -0.47365 2996 ft 176 kts 46°
2026-05-04 10:54 51.12494 -0.35722 2145 ft 163 kts 78°
2026-05-04 10:54 51.12740 -0.33960 1919 ft 162 kts 78°
2026-05-04 10:56 51.14381 -0.22162 429 ft 138 kts 76°
2026-05-04 10:56 51.14586 -0.20680 255 ft 136 kts 76°
2026-05-04 10:56 51.14773 -0.19333 208 ft 103 kts 78°
2026-05-04 10:57 51.14890 -0.18541 210 ft 43 kts 71°
2026-05-04 10:57 51.14953 -0.18119 204 ft 36 kts 79°
2026-05-04 10:57 51.15046 -0.17820 215 ft 27 kts 48°
2026-05-04 10:57 51.15113 -0.17757 207 ft 10 kts
2026-05-04 10:58 51.15175 -0.17767 208 ft 4 kts 354°
2026-05-04 10:58 51.15194 -0.17770 211 ft 2 kts 354°
2026-05-04 10:58 51.15204 -0.17772 213 ft 1 kts 354°
2026-05-04 10:58 51.15211 -0.17774 210 ft 1 kts 349°
2026-05-04 10:59 51.15220 -0.17777 205 ft 0 kts 349°
2026-05-04 10:59 51.15224 -0.17778 205 ft 1 kts 349°
2026-05-04 10:59 51.15237 -0.17785 208 ft 5 kts 337°
2026-05-04 10:59 51.15246 -0.17829 206 ft 4 kts 272°
2026-05-04 11:00 51.15244 -0.17840 204 ft 0 kts 258°
2026-05-04 11:01 51.15223 -0.18130 208 ft 4 kts 242°
2026-05-04 11:02 51.15225 -0.18180 210 ft 9 kts 296°
2026-05-04 11:02 51.15277 -0.18235 212 ft 8 kts 340°
2026-05-04 11:05 51.15714 -0.17858 204 ft 16 kts 78°
2026-05-04 11:06 51.15739 -0.17670 211 ft 18 kts 78°
2026-05-04 11:06 51.15742 -0.17645 207 ft 0 kts 78°